Date String (YYYY-MM-DD hh:mm:ss) UTC,Instrument flags,absolute air pressure of the measurement (hPa),sample flow rate (lpm),inlet stack bypass flow (lpm),air temperature of the measurement (°C),ambient temperature measured by the external sensor (°C),aerosol sample conditioner tube jacket temperature (°C),OPC LED temperature (°C),internal box temperature (°C),relative humidity of the measurement (%),span deviation,mass concentration of particles derived from Lorenz-Mie calculation of OPC scattering (μg/m³),mass concentration of particles derived from Lorenz-Mie calculation of OPC scattering (μg/m³),mass concentration of particles derived from Lorenz-Mie calculation of OPC scattering (μg/m³)
DateTimeUTC,F1_M11,P_M11,Q1_M11,Q2_M11,T1_M11,T2_M11,T3_M11,T4_M11,T5_M11,U1_M11,ZSPAN_M11,X0_M11,X2_M11,X1_M11
2024-04-15 11:00:00,SystemResetWarning,0819.2,5.01,000.00,026.0,025.3,000.0,034.5,027.8,007.6,0000.0,0008.09,0002.97,0001.68
2024-04-15 11:01:00,SystemResetWarning,0819.2,5.00,000.00,026.0,025.3,000.0,034.5,027.9,007.3,0000.0,0008.48,0002.97,0001.68
2024-04-15 11:02:00,SystemResetWarning,0819.2,4.98,000.00,026.0,025.3,000.0,034.5,027.9,007.2,0000.0,0008.48,0002.96,0001.69
2024-04-15 11:03:00,SystemResetWarning,0819.3,5.00,000.00,026.0,025.3,000.0,034.5,027.9,007.2,0000.0,0008.65,0002.98,0001.68
2024-04-15 11:04:00,SystemResetWarning,0819.2,5.01,000.00,026.0,025.3,000.0,034.5,027.9,007.2,0000.0,0008.79,0003.00,0001.69
2024-04-15 11:05:00,SystemResetWarning,0819.2,4.99,000.00,026.0,025.3,000.0,034.5,027.9,007.3,0000.0,0008.70,0003.02,0001.70
2024-04-15 11:06:00,SystemResetWarning,0819.2,5.00,000.00,026.0,025.3,000.0,034.5,027.9,007.3,0000.0,0008.99,0003.00,0001.70
2024-04-15 11:07:00,SystemResetWarning,0819.2,5.01,000.00,026.0,025.3,000.0,034.5,027.9,007.4,0000.0,0009.30,0002.95,0001.70
2024-04-15 11:08:00,SystemResetWarning,0819.2,5.01,000.00,026.0,025.3,000.0,034.5,027.9,007.6,0000.0,0009.83,0002.93,0001.71
2024-04-15 11:09:00,SystemResetWarning,0819.2,4.99,000.00,026.0,025.3,000.0,034.5,027.9,007.6,0000.0,0009.72,0002.96,0001.71
2024-04-15 11:10:00,SystemResetWarning,0819.2,4.99,000.00,026.0,025.3,000.0,034.5,027.9,007.5,0000.0,0009.00,0002.89,0001.72
2024-04-15 11:11:00,SystemResetWarning,0819.2,4.99,000.00,026.0,025.3,000.0,034.5,027.8,007.5,0000.0,0008.72,0002.85,0001.72
2024-04-15 11:12:00,SystemResetWarning,0819.2,5.01,000.00,026.0,025.3,000.0,034.5,027.9,007.5,0000.0,0008.68,0002.84,0001.72
2024-04-15 11:13:00,SystemResetWarning,0819.1,5.01,000.00,026.0,025.3,000.0,034.5,027.9,007.5,0000.0,0009.35,0002.87,0001.71
2024-04-15 11:14:00,SystemResetWarning,0819.1,5.00,000.00,026.0,025.3,000.0,034.5,027.9,007.5,0000.0,0009.68,0002.91,0001.73
2024-04-15 11:15:00,SystemResetWarning,0819.1,5.00,000.00,026.0,025.3,000.0,034.5,027.9,007.5,0000.0,0010.11,0002.90,0001.73
2024-04-15 11:16:00,SystemResetWarning,0819.1,5.00,000.00,026.0,025.3,000.0,034.5,027.9,007.5,0000.0,0010.74,0002.98,0001.72
2024-04-15 11:17:00,SystemResetWarning,0819.1,5.00,000.00,026.0,025.3,000.0,034.5,027.9,007.6,0000.0,0010.28,0003.00,0001.72
2024-04-15 11:18:00,SystemResetWarning,0819.0,4.99,000.00,026.0,025.3,000.0,034.5,027.9,007.6,0000.0,0009.91,0003.03,0001.73
2024-04-15 11:19:00,SystemResetWarning,0819.1,4.99,000.00,026.0,025.3,000.0,034.5,027.9,007.5,0000.0,0009.58,0003.10,0001.72
2024-04-15 11:20:00,SystemResetWarning,0819.1,5.00,000.00,026.0,025.3,000.0,034.5,027.9,007.5,0000.0,0009.67,0003.12,0001.71
2024-04-15 11:21:00,SystemResetWarning,0819.1,5.00,000.00,026.0,025.3,000.0,034.5,027.8,007.5,0000.0,0010.27,0003.14,0001.70
2024-04-15 11:22:00,SystemResetWarning,0819.1,5.01,000.00,026.0,025.3,000.0,034.5,027.9,007.4,0000.0,0010.42,0003.13,0001.68
2024-04-15 11:23:00,SystemResetWarning,0819.1,5.01,000.00,026.0,025.3,000.0,034.5,027.9,007.4,0000.0,0010.10,0003.16,0001.69
2024-04-15 11:24:00,SystemResetWarning,0819.0,4.98,000.00,026.0,025.3,000.0,034.5,027.9,007.4,0000.0,0009.49,0003.15,0001.70
2024-04-15 11:25:00,SystemResetWarning,0819.0,4.99,000.00,026.0,025.3,000.0,034.5,027.8,007.3,0000.0,0009.68,0003.17,0001.69
2024-04-15 11:26:00,SystemResetWarning,0819.1,5.00,000.00,026.0,025.2,000.0,034.5,027.8,007.2,0000.0,0009.27,0003.18,0001.71
2024-04-15 11:27:00,SystemResetWarning,0819.1,5.01,000.00,026.0,025.2,000.0,034.5,027.8,007.1,0000.0,0008.68,0003.12,0001.72
2024-04-15 11:28:00,SystemResetWarning,0819.1,5.01,000.00,026.0,025.2,000.0,034.5,027.8,007.1,0000.0,0009.26,0003.10,0001.71
2024-04-15 11:29:00,SystemResetWarning,0819.0,4.99,000.00,026.0,025.2,000.0,034.5,027.8,007.0,0000.0,0009.67,0003.08,0001.70
2024-04-15 11:30:00,SystemResetWarning,0819.0,4.99,000.00,026.0,025.2,000.0,034.5,027.8,007.0,0000.0,0009.62,0003.03,0001.70
2024-04-15 11:31:00,SystemResetWarning,0819.0,5.00,000.00,026.0,025.2,000.0,034.5,027.8,006.9,0000.0,0010.02,0002.97,0001.70
2024-04-15 11:32:00,SystemResetWarning,0819.0,5.01,000.00,026.0,025.2,000.0,034.5,027.8,006.9,0000.0,0009.69,0002.94,0001.69
2024-04-15 11:33:00,SystemResetWarning,0819.1,5.00,000.00,026.0,025.3,000.0,034.5,027.8,006.9,0000.0,0009.56,0002.94,0001.70
2024-04-15 11:34:00,SystemResetWarning,0819.0,4.99,000.00,026.0,025.3,000.0,034.5,027.9,007.0,0000.0,0009.90,0002.97,0001.70
2024-04-15 11:35:00,SystemResetWarning,0819.0,4.99,000.00,026.0,025.3,000.0,034.5,027.9,006.9,0000.0,0010.27,0002.96,0001.69
2024-04-15 11:36:00,SystemResetWarning,0819.1,5.00,000.00,026.0,025.3,000.0,034.5,027.9,006.9,0000.0,0010.12,0002.93,0001.70
2024-04-15 11:37:00,SystemResetWarning,0819.1,5.00,000.00,026.0,025.3,000.0,034.5,027.9,006.9,0000.0,0009.81,0002.93,0001.67
2024-04-15 11:38:00,SystemResetWarning,0819.1,5.01,000.00,026.0,025.3,000.0,034.5,027.8,006.9,0000.0,0009.74,0002.91,0001.66
2024-04-15 11:39:00,SystemResetWarning,0819.1,5.01,000.00,026.0,025.3,000.0,034.5,027.8,007.0,0000.0,0009.40,0002.90,0001.67
2024-04-15 11:40:00,SystemResetWarning,0819.1,5.00,000.00,026.0,025.3,000.0,034.5,027.9,007.1,0000.0,0008.90,0002.89,0001.68
2024-04-15 11:41:00,SystemResetWarning,0819.2,5.00,000.00,026.0,025.3,000.0,034.5,027.9,007.5,0000.0,0008.91,0002.94,0001.70
2024-04-15 11:42:00,SystemResetWarning,0819.1,5.00,000.00,026.0,025.3,000.0,034.5,027.9,007.5,0000.0,0008.46,0003.04,0001.74
2024-04-15 11:43:00,SystemResetWarning,0819.1,5.00,000.00,026.0,025.3,000.0,034.5,027.9,007.5,0000.0,0008.62,0003.08,0001.77
2024-04-15 11:44:00,SystemResetWarning,0819.1,5.00,000.00,026.0,025.3,000.0,034.5,027.9,007.6,0000.0,0009.32,0003.14,0001.79
2024-04-15 11:45:00,SystemResetWarning,0819.1,4.99,000.00,026.0,025.3,000.0,034.5,027.8,007.6,0000.0,0008.92,0003.13,0001.81
2024-04-15 11:46:00,SystemResetWarning,0819.1,4.99,000.00,026.0,025.2,000.0,034.5,027.8,007.6,0000.0,0008.71,0003.16,0001.84
2024-04-15 11:47:00,SystemResetWarning,0819.0,5.00,000.00,026.0,025.2,000.0,034.5,027.8,007.5,0000.0,0008.60,0003.17,0001.84
2024-04-15 11:48:00,SystemResetWarning,0819.0,5.00,000.00,026.0,025.2,000.0,034.5,027.8,007.4,0000.0,0008.56,0003.16,0001.86
2024-04-15 11:49:00,SystemResetWarning,0819.1,5.01,000.00,026.0,025.2,000.0,034.5,027.8,007.3,0000.0,0008.55,0003.15,0001.88
2024-04-15 11:50:00,SystemResetWarning,0819.1,5.01,000.00,026.0,025.2,000.0,034.5,027.8,007.3,0000.0,0008.25,0003.18,0001.89
2024-04-15 11:51:00,SystemResetWarning,0819.1,4.99,000.00,026.0,025.2,000.0,034.5,027.8,007.4,0000.0,0008.16,0003.18,0001.89
2024-04-15 11:52:00,SystemResetWarning,0819.1,4.99,000.00,026.0,025.2,000.0,034.5,027.8,007.5,0000.0,0009.08,0003.18,0001.90
2024-04-15 11:53:00,SystemResetWarning,0819.1,4.99,000.00,026.0,025.2,000.0,034.5,027.8,007.6,0000.0,0010.12,0003.12,0001.87
2024-04-15 11:54:00,SystemResetWarning,0819.3,5.01,000.00,026.0,025.2,000.0,034.5,027.8,007.7,0000.0,0009.84,0003.06,0001.85
2024-04-15 11:55:00,SystemResetWarning,0819.1,5.01,000.00,026.0,025.2,000.0,034.5,027.8,007.9,0000.0,0009.36,0002.99,0001.86
2024-04-15 11:56:00,SystemResetWarning,0819.1,5.00,000.00,026.0,025.2,000.0,034.5,027.8,008.0,0000.0,0009.19,0002.96,0001.86
2024-04-15 11:57:00,SystemResetWarning,0819.1,4.99,000.00,026.0,025.2,000.0,034.5,027.8,007.9,0000.0,0009.14,0002.95,0001.87
2024-04-15 11:58:00,SystemResetWarning,0819.1,5.00,000.00,026.0,025.2,000.0,034.5,027.8,007.9,0000.0,0009.14,0002.88,0001.88
2024-04-15 11:59:00,SystemResetWarning,0819.0,5.00,000.00,026.0,025.1,000.0,034.5,027.8,007.9,0000.0,0009.01,0002.84,0001.88
